Back to catalog

TJS-17 AKM

AliveGEO
NORAD 63629·ROCKET BODY·🇨🇳 China

Launched Apr 10, 2025 from Xichang Satellite Launch Center

Loading…

TLE

FreshSource: Space-Track

Epoch: Sep 14, 2026, 02:36 UTC

1 63629U 25073C   26257.10845351  .00000046  00000-0  00000+0 0  9991
2 63629   1.3137  81.7439 0011502  99.2489 261.9562  0.98859138  5114

Track TJS-17 AKM in real time with AllMySat

Download on the App Store